Barcelona, Spain

5:43 PM CEST en Mayo 20, 2018 (GMT +0200)
El Prat

Tiempo Historia de LEBL - Febrero, 2018

Change the Weather History Date:

Miércoles, Febrero 14, 2018

  Actual Average Record
Temperature  
Temperatura media 46 ° F -  
Temperatura máxima 53 ° F 57 ° F 68 ° F (2014)
Temperatura mínima 39 ° F 43 ° F 35 ° F (1999)
Degree Days  
Grados día de calefacción 19    
Moisture  
Punto de rocío 36 ° F    
Average Humidity 68    
Maximum Humidity 87    
Minimum Humidity 49    
Precipitación  
Precipitación 0.00 pul 0.05 pul - ()
Presión al nivel del mar  
Presión al nivel del mar 30.03 pul    
Viento  
Velocidad del viento 7 mph ()    
Velocidad máxima del viento 13 mph    
Max Gust Speed -    
Visibilidad 10.1 Millas    
Eventos      
Averages and records for this station are not official NWS values.
T = Trace of Precipitation, MM = Missing Value Source: Averaged Metar Reports

Daily Weather History Graph

Daily Weather History Graph

Search for Another Location

Airport or City:

Astronomía

Feb. 14, 2018 Salida Puesta
Hora real 7:48 AM CET 6:24 PM CET
Crepúsculo civil 7:19 AM CET 6:52 PM CET
Crepúsculo náutico 6:47 AM CET 7:25 PM CET
Crepúsculo astronómico 6:15 AM CET 7:57 PM CET
Luna 6:58 AM CET (2/14) 5:10 PM CET (2/14)
Horas de luz 11h 32m
Horas de luz
10h 36m
Creciente menguante, 2% of the Moon is Illuminated
Feb 14
Creciente menguante
Feb 15
Nueva
Feb 23
Cuarto creciente
Mar 2
Luna llena
Mar 9
Cuarto menguante

Hourly Weather History & Observations

Hora (CET) Temp. Vientos helados Punto de rocío Humedad Presión Visibilidad Wind Dir Velocidad del viento Velocidad de ráfagas Precip Eventos Condiciones
12:00 AM 46.4 ° F 44.3 ° F 32.0 ° F 57% 29.98 pul - OSO 4.6 mph - N/A   Despejado
12:30 AM 44.6 ° F 39.2 ° F 33.8 ° F 66% 29.98 pul - Oeste 10.4 mph - N/A   Despejado
1:00 AM 45 ° F - 34 ° F 54% 29.98 pul 25 mi Oeste 5.8 mph - -   Nubes dispersas
1:00 AM 44.6 ° F 39.2 ° F 33.8 ° F 66% 29.98 pul - OSO 10.4 mph - N/A   Despejado
1:30 AM 42.8 ° F 37.0 ° F 33.8 ° F 70% 29.95 pul - Oeste 10.4 mph - N/A   Despejado
2:00 AM 44 ° F - 34 ° F 58% 29.97 pul 19 mi Oeste 8.1 mph - -  
2:00 AM 42.8 ° F 38.0 ° F 33.8 ° F 70% 29.95 pul - Oeste 8.1 mph - N/A   Despejado
2:30 AM 44.6 ° F 40.2 ° F 33.8 ° F 66% 29.95 pul - Oeste 8.1 mph - N/A   Despejado
3:00 AM 44 ° F - 34 ° F 57% 29.98 pul 19 mi Oeste 5.8 mph - -  
3:00 AM 42.8 ° F 41.1 ° F 33.8 ° F 70% 29.98 pul - NNO 3.5 mph - N/A   Despejado
3:30 AM 42.8 ° F 41.1 ° F 33.8 ° F 70% 29.98 pul - Norte 3.5 mph - N/A   Despejado
4:00 AM 42 ° F - 33 ° F 61% 29.98 pul 19 mi NNE 4.6 mph - -   Despejado
4:00 AM 41.0 ° F 39.0 ° F 32.0 ° F 70% 29.98 pul - NE 3.5 mph - N/A   Despejado
4:30 AM 39.2 ° F 35.9 ° F 32.0 ° F 75% 29.98 pul - Norte 4.6 mph - N/A   Despejado
5:00 AM 39 ° F - 33 ° F 70% 29.99 pul 17 mi Norte 2.3 mph - -  
5:00 AM 39.2 ° F 35.0 ° F 32.0 ° F 75% 29.98 pul - Norte 5.8 mph - N/A   Despejado
5:30 AM 39.2 ° F 34.2 ° F 32.0 ° F 75% 29.98 pul - NO 6.9 mph - N/A   Despejado
6:00 AM 40 ° F - 33 ° F 67% 30.01 pul 17 mi Norte 10.4 mph - -  
6:00 AM 39.2 ° F 34.2 ° F 32.0 ° F 75% 29.98 pul - NO 6.9 mph - N/A   Despejado
6:30 AM 41.0 ° F 33.9 ° F 32.0 ° F 70% 30.01 pul - NO 12.7 mph - N/A   Despejado
7:00 AM 41 ° F - 33 ° F 64% 30.01 pul 19 mi Norte 9.2 mph - -   Parcialmente nublado
7:00 AM 41.0 ° F 34.7 ° F 33.8 ° F 76% 30.01 pul - NO 10.4 mph - N/A   Despejado
7:30 AM 39.2 ° F 34.2 ° F 32.0 ° F 75% 30.01 pul - NNO 6.9 mph - N/A   Despejado
8:00 AM 40 ° F - 33 ° F 66% 30.03 pul 15 mi Norte 10.4 mph - -  
8:00 AM 39.2 ° F 32.5 ° F 32.0 ° F 75% 30.01 pul - NO 10.4 mph - N/A   Despejado
8:30 AM 39.2 ° F 33.0 ° F 32.0 ° F 75% 30.04 pul - NNO 9.2 mph - N/A   Despejado
9:00 AM 40 ° F - 33 ° F 67% 30.05 pul 13 mi Norte 10.4 mph - -  
9:00 AM 39.2 ° F 33.0 ° F 32.0 ° F 75% 30.04 pul 6.2 mi NO 9.2 mph - N/A   Nubes dispersas
9:30 AM 39.2 ° F 33.0 ° F 32.0 ° F 75% 30.04 pul 6.2 mi NNO 9.2 mph - N/A   Muy nublado
10:00 AM 41 ° F - 33 ° F 65% 30.07 pul 16 mi Norte 11.5 mph - -   Muy nublado
10:00 AM 41.0 ° F 34.3 ° F 32.0 ° F 70% 30.06 pul 6.2 mi NNO 11.5 mph - N/A   Muy nublado
10:30 AM 41.0 ° F 34.3 ° F 33.8 ° F 76% 30.06 pul 6.2 mi NNO 11.5 mph - N/A   Muy nublado
11:00 AM 44 ° F - 33 ° F 56% 30.09 pul 16 mi Norte 11.5 mph - -  
11:00 AM 42.8 ° F 37.5 ° F 32.0 ° F 66% 30.06 pul 6.2 mi NO 9.2 mph - N/A   Muy nublado
11:30 AM 44.6 ° F 40.2 ° F 33.8 ° F 66% 30.06 pul 6.2 mi NO 8.1 mph - N/A   Muy nublado
12:00 PM 47 ° F - 35 ° F 52% 30.09 pul 15 mi Norte 9.2 mph - -  
12:00 PM 44.6 ° F 40.2 ° F 33.8 ° F 66% 30.06 pul 6.2 mi NNO 8.1 mph - N/A   Muy nublado
12:30 PM 46.4 ° F 42.9 ° F 33.8 ° F 62% 30.06 pul 6.2 mi NNO 6.9 mph - N/A   Muy nublado
1:00 PM 49 ° F - 36 ° F 51% 30.06 pul 16 mi Norte 9.2 mph - -   Muy nublado
1:00 PM 48.2 ° F - 35.6 ° F 62% 30.06 pul 6.2 mi NNO 6.9 mph - N/A   Muy nublado
1:30 PM 48.2 ° F - 35.6 ° F 62% 30.04 pul 6.2 mi NNO 5.8 mph - N/A   Muy nublado
2:00 PM 49 ° F - 36 ° F 51% 30.06 pul 16 mi Norte 8.1 mph - -  
2:00 PM 48.2 ° F - 35.6 ° F 62% 30.04 pul 6.2 mi NO 4.6 mph - N/A   Muy nublado
2:30 PM 48.2 ° F - 35.6 ° F 62% 30.04 pul 6.2 mi NO 4.6 mph - N/A   Muy nublado
3:00 PM 51 ° F - 38 ° F 51% 30.05 pul 14 mi Norte 4.6 mph - -  
3:00 PM 50.0 ° F - 37.4 ° F 62% 30.04 pul 6.2 mi NNO 4.6 mph - N/A   Muy nublado
3:30 PM 50.0 ° F - 37.4 ° F 62% 30.04 pul 6.2 mi NNO 3.5 mph - N/A   Muy nublado
4:00 PM 53 ° F - 40 ° F 49% 30.05 pul 16 mi Oeste 2.3 mph - -   Muy nublado
4:00 PM 51.8 ° F - 39.2 ° F 62% 30.04 pul 6.2 mi NO 3.5 mph - N/A   Muy nublado
4:30 PM 51.8 ° F - 39.2 ° F 62% 30.04 pul 6.2 mi SO 4.6 mph - N/A   Muy nublado
5:00 PM 52 ° F - 40 ° F 54% 30.05 pul 14 mi SO 8.1 mph - -  
5:00 PM 51.8 ° F - 39.2 ° F 62% 30.04 pul 6.2 mi SSO 5.8 mph - N/A   Muy nublado
5:30 PM 51.8 ° F - 41.0 ° F 67% 30.04 pul 6.2 mi SO 9.2 mph - N/A   Nubes dispersas
6:00 PM 52 ° F - 43 ° F 61% 30.05 pul 18 mi Oeste 8.1 mph - -  
6:00 PM 51.8 ° F - 42.8 ° F 71% 30.04 pul 6.2 mi SO 10.4 mph - N/A   Parcialmente nublado
6:30 PM 50.0 ° F - 42.8 ° F 76% 30.04 pul 6.2 mi SO 10.4 mph - N/A   Parcialmente nublado
7:00 PM 51 ° F - 44 ° F 69% 30.06 pul 14 mi OSO 6.9 mph - -   Nubes dispersas
7:00 PM 50.0 ° F - 42.8 ° F 76% 30.04 pul 6.2 mi SO 8.1 mph - N/A   Parcialmente nublado
7:30 PM 50.0 ° F - 42.8 ° F 76% 30.04 pul 6.2 mi OSO 8.1 mph - N/A   Nubes dispersas
8:00 PM 50 ° F - 44 ° F 72% 30.07 pul 14 mi Oeste 3.5 mph - -  
8:00 PM 50.0 ° F - 42.8 ° F 76% 30.06 pul 6.2 mi OSO 10.4 mph - N/A   Parcialmente nublado
8:30 PM 48.2 ° F - 42.8 ° F 82% 30.06 pul 6.2 mi OSO 5.8 mph - N/A   Parcialmente nublado
9:00 PM 48 ° F - 43 ° F 77% 30.07 pul 12 mi Oeste 4.6 mph - -  
9:00 PM 48.2 ° F - 42.8 ° F 82% 30.06 pul 6.2 mi Variable 1.2 mph - N/A   Parcialmente nublado
9:30 PM 48.2 ° F - 42.8 ° F 82% 30.06 pul 6.2 mi OSO 1.2 mph - N/A   Parcialmente nublado
10:00 PM 48 ° F - 43 ° F 77% 30.07 pul 12 mi NNE 2.3 mph - -   Nubes dispersas
10:00 PM 48.2 ° F - 42.8 ° F 82% 30.06 pul 6.2 mi Norte 2.3 mph - N/A   Parcialmente nublado
10:30 PM 46.4 ° F 44.3 ° F 42.8 ° F 87% 30.06 pul 6.2 mi NO 4.6 mph - N/A   Parcialmente nublado
11:00 PM 46 ° F - 42 ° F 80% 30.07 pul 9 mi Norte 6.9 mph - -  
11:00 PM 46.4 ° F - 41.0 ° F 81% 30.06 pul 6.2 mi Norte 2.3 mph - N/A   Parcialmente nublado
11:30 PM 44.6 ° F - 41.0 ° F 87% 30.06 pul 6.2 mi Variable 2.3 mph - N/A   Parcialmente nublado